User: anonymous   Login
Location: Tafessasset
(32.5899°N, 5.4824°W)
Time: 09:01:38
(UTC+00:00)
Language:

Cosmos 2084 - Orbit

View from above orbital plane
View from above orbital plane
View from above satellite
View from above satellite

Ground track
Ground track

The orbit data is extracted from the following two-line orbital elements,

1 20663U 90055A   20158.12727993 -.00000034  00000-0  14575-4 0  9996
2 20663  62.7940 206.0027 0029129 256.2434 103.5417 14.92087753621672
Epoch (UTC): 06 June 2020 03:03:16
Eccentricity: 0.0029129
inclination: 62.7940°
perigee height: 571 km
apogee height: 612 km
right ascension of ascending node: 206.0027°
argument of perigee: 256.2434°
revolutions per day: 14.92087753
mean anomaly at epoch: 103.5417°
orbit number at epoch: 62167

The dashed part of the orbit path shows where the satellite is in the earth's shadow,  

DLR